Total_Precipitation_Accumulation
0.62 0.66 0.66 0.62 0.60 0.63 0.73 0.84 1.25 1.68 2.21 2.65 2.84 2.82 2.87 2.75 2.54 2.17 2.08 2.19 2.17 2.09 2.09 2.00 1.98 2.16 2.31 2.35 2.31 2.53 2.56 2.42 2.24 2.04 2.02 2.03 1.98 1.91 1.83 1.78 1.67 1.75 1.81 1.74
0.66 0.55 0.65 0.69 0.71 0.80 0.91 0.98 1.22 1.75 2.47 2.79 2.87 2.83 2.85 2.75 2.59 2.51 2.43 2.36 2.32 2.31 2.29 2.22 2.11 2.20 2.40 2.42 2.37 2.50 2.49 2.55 2.57 2.47 2.43 2.29 2.09 1.99 1.97 1.94 1.88 1.79 1.76 1.69
1.05 0.68 0.92 1.37 1.04 1.00 1.18 1.27 1.54 2.19 2.53 2.45 2.54 2.72 2.92 2.99 2.88 2.79 2.77 2.63 2.59 2.63 2.57 2.57 2.54 2.47 2.49 2.43 2.38 2.42 2.53 2.60 2.61 2.57 2.48 2.38 2.12 2.02 2.07 2.03 1.97 1.87 1.73 1.68
1.24 1.35 2.07 1.87 1.13 1.10 1.35 1.56 1.75 2.03 2.13 2.17 2.20 2.33 2.47 2.61 2.76 2.74 2.68 2.61 2.65 2.78 2.75 2.74 2.64 2.59 2.51 2.49 2.54 2.63 2.69 2.67 2.57 2.42 2.39 2.31 2.24 2.19 2.13 2.05 1.98 1.89 1.78 1.65
1.47 1.86 2.10 1.89 1.23 1.26 1.73 2.32 1.95 1.94 1.83 1.66 1.65 1.95 2.45 2.50 2.51 2.68 2.70 2.68 2.65 2.64 2.64 2.69 2.62 2.54 2.48 2.47 2.52 2.57 2.57 2.43 2.33 2.33 2.35 2.19 2.19 2.17 2.13 2.04 1.92 1.81 1.70 1.62
1.61 2.21 2.61 2.37 1.28 1.06 1.64 2.92 2.22 1.92 1.87 1.74 1.84 2.40 2.65 2.45 2.41 2.40 2.39 2.44 2.36 2.21 2.17 2.36 2.51 2.50 2.40 2.33 2.33 2.31 2.15 1.96 1.85 1.94 2.03 1.91 1.81 1.80 1.82 1.86 1.86 1.75 1.60 1.55
1.79 2.36 2.58 1.57 0.97 1.18 2.52 3.11 2.35 1.94 1.83 1.81 2.10 2.35 2.12 1.91 2.03 2.08 2.05 1.95 1.90 1.87 1.95 2.09 2.15 2.20 2.23 2.14 2.17 2.06 1.86 1.76 1.76 1.72 1.74 1.70 1.72 1.73 1.67 1.63 1.69 1.72 1.68 1.57
1.94 2.55 2.69 1.35 1.16 1.88 2.32 1.89 1.80 1.76 1.70 1.66 1.63 1.55 1.54 1.59 1.62 1.64 1.67 1.64 1.59 1.70 1.81 1.86 1.81 1.81 1.92 1.93 1.94 1.83 1.72 1.65 1.71 1.69 1.57 1.65 1.83 1.78 1.71 1.72 1.71 1.68 1.68 1.58
2.05 2.47 2.11 1.42 1.38 1.53 1.56 1.54 1.44 1.44 1.40 1.34 1.32 1.17 1.22 1.42 1.34 1.29 1.31 1.38 1.45 1.49 1.63 1.74 1.74 1.77 1.82 1.79 1.70 1.69 1.73 1.67 1.59 1.53 1.62 1.70 1.82 1.78 1.69 1.65 1.54 1.42 1.40 1.36
1.72 1.81 1.59 1.42 1.37 1.30 1.18 1.16 1.10 1.18 1.33 1.28 1.25 1.26 1.31 1.37 1.29 1.21 1.25 1.27 1.34 1.40 1.46 1.60 1.58 1.59 1.71 1.65 1.60 1.71 1.80 1.72 1.58 1.48 1.48 1.55 1.62 1.64 1.55 1.47 1.39 1.29 1.22 1.17
1.74 1.69 1.60 1.59 1.36 1.23 1.13 1.02 0.98 1.06 1.16 1.24 1.28 1.33 1.34 1.31 1.27 1.28 1.38 1.40 1.39 1.42 1.42 1.41 1.41 1.42 1.43 1.46 1.56 1.74 1.70 1.55 1.43 1.31 1.28 1.33 1.34 1.34 1.32 1.22 1.17 1.14 1.04 0.96
1.83 1.59 1.62 1.72 1.43 1.17 1.14 1.08 1.07 1.08 1.16 1.29 1.33 1.42 1.37 1.28 1.25 1.28 1.34 1.33 1.39 1.36 1.26 1.26 1.33 1.37 1.29 1.23 1.37 1.62 1.61 1.37 1.22 1.14 1.10 1.03 1.03 1.05 1.04 1.02 1.00 0.93 0.93 0.88
1.31 1.21 1.19 1.13 1.01 0.96 0.95 0.96 1.00 1.02 1.12 1.25 1.28 1.29 1.24 1.25 1.23 1.28 1.32 1.29 1.29 1.28 1.22 1.13 1.17 1.22 1.21 1.15 1.18 1.31 1.41 1.22 1.03 0.98 0.98 0.95 0.95 1.06 1.09 0.95 0.90 0.85 0.87 0.84
0.97 1.00 1.08 1.06 1.05 0.95 0.93 0.94 0.98 0.98 1.03 1.08 1.17 1.19 1.14 1.15 1.20 1.23 1.24 1.17 1.04 1.01 1.08 1.08 1.08 1.02 0.93 0.91 1.04 1.10 1.08 1.03 0.96 0.95 0.91 0.85 0.83 0.93 1.03 1.10 1.07 0.94 0.88 0.88
0.89 0.92 1.06 1.05 1.01 0.93 0.97 1.03 1.12 1.14 1.10 1.09 1.02 1.03 1.03 1.04 1.08 1.10 1.06 1.00 0.99 1.00 1.01 0.99 1.01 1.00 0.83 0.77 0.85 0.89 0.88 0.88 0.90 0.90 0.84 0.79 0.74 0.76 0.81 0.90 1.01 1.04 0.97 0.96
0.90 0.91 0.97 0.97 1.01 0.99 1.01 1.12 1.26 1.25 1.11 1.13 1.12 1.15 1.08 1.06 1.01 1.00 0.99 0.99 1.01 1.03 1.00 1.01 1.00 0.90 0.78 0.77 0.83 0.85 0.78 0.79 0.83 0.82 0.83 0.85 0.82 0.80 0.84 0.89 0.95 1.00 1.02 1.00
1.01 1.09 1.08 1.02 0.97 1.00 1.01 0.98 1.05 1.15 1.08 1.04 1.05 1.09 1.07 1.07 1.06 1.08 1.15 1.10 1.05 1.01 0.98 0.98 0.94 0.81 0.74 0.73 0.78 0.77 0.71 0.73 0.76 0.74 0.76 0.82 0.87 0.93 0.98 1.00 1.03 1.10 1.12 1.12
1.03 1.05 0.99 0.95 0.94 0.94 0.93 0.87 0.82 0.90 0.99 0.99 0.99 0.97 0.99 1.04 1.10 1.13 1.17 1.05 0.99 1.00 0.92 0.85 0.81 0.76 0.71 0.70 0.78 0.79 0.84 0.82 0.75 0.72 0.72 0.74 0.76 0.87 1.01 1.13 1.20 1.20 1.17 1.13
0.89 0.86 0.83 0.82 0.88 0.91 0.85 0.82 0.76 0.74 0.80 0.87 0.88 0.91 0.97 1.03 1.05 1.09 1.07 0.96 0.97 1.00 0.91 0.82 0.80 0.74 0.73 0.73 0.76 0.80 0.86 0.85 0.83 0.83 0.79 0.79 0.78 0.83 0.96 1.06 1.13 1.23 1.22 1.14
0.78 0.75 0.77 0.79 0.82 0.83 0.83 0.76 0.70 0.70 0.72 0.83 0.84 0.89 0.90 0.92 0.96 0.96 0.96 0.95 0.93 0.91 0.84 0.77 0.70 0.70 0.76 0.80 0.81 0.84 0.90 0.87 0.91 0.95 0.90 0.87 0.84 0.83 0.89 0.94 0.95 1.04 1.14 1.13
0.76 0.72 0.73 0.73 0.78 0.79 0.76 0.70 0.68 0.70 0.72 0.82 0.87 0.89 0.86 0.84 0.86 0.88 0.93 0.95 0.88 0.79 0.73 0.71 0.66 0.67 0.72 0.78 0.84 0.84 0.90 0.95 0.97 0.96 0.95 0.93 0.88 0.84 0.85 0.85 0.87 0.94 1.01 1.02
0.80 0.79 0.76 0.71 0.72 0.79 0.75 0.66 0.67 0.73 0.75 0.79 0.80 0.80 0.84 0.86 0.85 0.89 0.91 0.97 0.91 0.82 0.68 0.62 0.60 0.66 0.69 0.68 0.65 0.66 0.70 0.80 0.92 0.95 0.98 0.96 0.91 0.90 0.89 0.88 0.88 0.88 0.88 0.89
0.77 0.77 0.80 0.82 0.85 0.88 0.78 0.66 0.67 0.74 0.75 0.76 0.79 0.89 0.97 0.95 0.86 0.87 0.91 0.85 0.84 0.81 0.69 0.63 0.65 0.67 0.63 0.55 0.54 0.55 0.57 0.62 0.69 0.75 0.82 0.86 0.86 0.82 0.80 0.82 0.83 0.82 0.79 0.81
0.82 0.77 0.76 0.82 0.90 0.85 0.82 0.76 0.72 0.72 0.72 0.73 0.79 0.89 0.93 0.88 0.77 0.74 0.80 0.80 0.78 0.74 0.69 0.71 0.67 0.61 0.57 0.51 0.54 0.56 0.56 0.59 0.63 0.68 0.70 0.71 0.75 0.75 0.75 0.75 0.79 0.78 0.77 0.78
0.80 0.79 0.77 0.84 0.92 0.86 0.81 0.75 0.69 0.68 0.74 0.77 0.77 0.80 0.76 0.72 0.71 0.64 0.59 0.59 0.61 0.59 0.60 0.62 0.62 0.61 0.54 0.50 0.54 0.59 0.60 0.61 0.64 0.66 0.69 0.69 0.68 0.70 0.73 0.76 0.81 0.82 0.83 0.84
0.92 0.98 0.97 0.96 0.92 0.84 0.76 0.70 0.72 0.75 0.79 0.83 0.81 0.77 0.68 0.64 0.65 0.63 0.54 0.48 0.50 0.52 0.50 0.51 0.56 0.58 0.54 0.54 0.58 0.60 0.63 0.65 0.65 0.64 0.65 0.68 0.69 0.71 0.73 0.80 0.84 0.86 0.85 0.81
1.01 1.00 1.00 0.96 0.87 0.78 0.76 0.73 0.74 0.78 0.83 0.86 0.85 0.76 0.69 0.64 0.62 0.61 0.54 0.49 0.48 0.50 0.49 0.50 0.51 0.52 0.53 0.55 0.57 0.57 0.59 0.66 0.70 0.70 0.70 0.71 0.74 0.78 0.80 0.81 0.83 0.86 0.84 0.79